Hourly Data Report for November 22, 2017

All times are specified in Local Standard Time (LST). Add 1 hour to adjust for Daylight Saving Time where and when it is observed.

DAWSON
YUKON TERRITORY

64°03'39.076" N
139°07'36.000" W
370.00 m
2100LRP
71966
WON

Download Data

Hourly Data (November 2017)
Hourly Data Report for November 22, 2017
Temp Definition
°C
Dew Point Temp Definition
°C
Rel Hum Definition
%
Wind Dir Definition
10's deg

Wind Spd Definition
km/h
Visibility Definition
km
Stn Press Definition
kPa
Hmdx Definition


Wind Chill Definition


Weather Definition


TIME
00:00 -31.5 -35.8 66 0 1   97.52   -33 LegendNANA
01:00 -31.6 -35.9 66 9 1   97.50   -33 LegendNANA
02:00 -30.6 -34.8 67 6 5   97.43   -36 LegendNANA
03:00 -31.7 -36.0 66 23 1   97.45   -33 LegendNANA
04:00 -31.8 -36.1 66 7 5   97.41   -38 LegendNANA
05:00 -32.7 -37.2 65   0   97.35     LegendNANA
06:00 -34.2 -38.8 63   0   97.37     LegendNANA
07:00 -34.7 -39.3 63   0   97.29     LegendNANA
08:00 -35.4 -40.1 62   0   97.21     LegendNANA
09:00 -35.7 -40.5 62   0   97.20     LegendNANA
10:00 -35.5 -40.3 62 3 2   97.21   -38 LegendNANA
11:00 -33.8 -38.3 64 4 3   97.14   -37 LegendNANA
12:00 -33.1 -37.5 64   0   97.05     LegendNANA
13:00 -31.9 -36.3 65 7 3   96.93   -35 LegendNANA
14:00 -31.1 -35.3 66 5 4   96.79   -36 LegendNANA
15:00 -30.8 -35.0 67 14 1   96.69   -32 LegendNANA
16:00 -30.5 -34.6 67   0   96.58     LegendNANA
17:00 -30.0 -34.1 67 3 2   96.53   -32 LegendNANA
18:00 -29.8 -33.9 68   0   96.39     LegendNANA
19:00 -29.6 -33.7 68 6 3   96.28   -33 LegendNANA
20:00 -29.7 -33.8 68 0 1   96.19   -31 LegendNANA
21:00 -29.7 -33.8 68 0 1   96.10   -31 LegendNANA
22:00 -29.8 -33.8 68 0 1   96.04   -31 LegendNANA
23:00 -30.6 -34.7 67 22 1   95.96   -32 LegendNANA

Notes on Data Quality.

Legend

  • E = Estimated
  • M = Missing
  • NA = Not Available
  • ‡ = Partner data that is not subject to review by the National Climate Archives
Date modified: